Year,Month,Day,Hour,Minute,Value (Times are PST for windspeed in km/hr)
2016,10,15,00,00,0.00
2016,10,15,00,01,0.00
2016,10,15,00,02,0.00
2016,10,15,00,03,0.00
2016,10,15,00,04,0.00
2016,10,15,00,05,0.00
2016,10,15,00,06,0.00
2016,10,15,00,07,0.00
2016,10,15,00,08,0.00
2016,10,15,00,09,0.00
2016,10,15,00,10,0.00
2016,10,15,00,11,0.00
2016,10,15,00,12,0.00
2016,10,15,00,13,0.10
2016,10,15,00,14,0.00
2016,10,15,00,15,0.30
2016,10,15,00,16,0.00
2016,10,15,00,17,0.00
2016,10,15,00,18,0.00
2016,10,15,00,19,0.00
2016,10,15,00,20,0.00
2016,10,15,00,21,0.00
2016,10,15,00,22,0.00
2016,10,15,00,23,0.00
2016,10,15,00,24,0.00
2016,10,15,00,25,0.00
2016,10,15,00,26,0.00
2016,10,15,00,27,0.00
2016,10,15,00,28,0.00
2016,10,15,00,29,0.00
2016,10,15,00,30,0.00
2016,10,15,00,31,0.00
2016,10,15,00,32,0.00
2016,10,15,00,33,0.00
2016,10,15,00,34,0.10
2016,10,15,00,35,1.40
2016,10,15,00,36,0.10
2016,10,15,00,37,0.00
2016,10,15,00,38,0.00
2016,10,15,00,39,0.00
2016,10,15,00,40,0.00
2016,10,15,00,41,1.60
2016,10,15,00,42,0.90
2016,10,15,00,43,0.00
2016,10,15,00,44,0.00
2016,10,15,00,45,0.00
2016,10,15,00,46,0.00
2016,10,15,00,47,0.00
2016,10,15,00,48,0.00
2016,10,15,00,49,0.00
2016,10,15,00,50,0.00
2016,10,15,00,51,0.00
2016,10,15,00,52,0.00
2016,10,15,00,53,0.00
2016,10,15,00,54,0.00
2016,10,15,00,55,0.00
2016,10,15,00,56,0.00
2016,10,15,00,57,0.00
2016,10,15,00,58,0.00
2016,10,15,00,59,0.00
2016,10,15,01,00,0.00
2016,10,15,01,01,0.00
2016,10,15,01,02,0.00
2016,10,15,01,03,0.10
2016,10,15,01,04,0.20
2016,10,15,01,05,0.30
2016,10,15,01,06,0.00
2016,10,15,01,07,0.10
2016,10,15,01,08,0.10
2016,10,15,01,09,0.10
2016,10,15,01,10,0.10
2016,10,15,01,11,0.00
2016,10,15,01,12,0.00
2016,10,15,01,13,0.00
2016,10,15,01,14,0.00
2016,10,15,01,15,0.00
2016,10,15,01,16,0.00
2016,10,15,01,17,0.00
2016,10,15,01,18,0.00
2016,10,15,01,19,0.00
2016,10,15,01,20,0.00
2016,10,15,01,21,0.00
2016,10,15,01,22,0.00
2016,10,15,01,23,0.00
2016,10,15,01,24,0.00
2016,10,15,01,25,0.00
2016,10,15,01,26,0.00
2016,10,15,01,27,0.00
2016,10,15,01,28,0.00
2016,10,15,01,29,0.10
2016,10,15,01,30,0.00
2016,10,15,01,31,0.00
2016,10,15,01,32,0.00
2016,10,15,01,33,0.00
2016,10,15,01,34,0.00
2016,10,15,01,35,0.00
2016,10,15,01,36,0.00
2016,10,15,01,37,0.00
2016,10,15,01,38,0.00
2016,10,15,01,39,0.00
2016,10,15,01,40,0.00
2016,10,15,01,41,0.00
2016,10,15,01,42,0.00
2016,10,15,01,43,0.00
2016,10,15,01,44,0.00
2016,10,15,01,45,0.00
2016,10,15,01,46,0.00
2016,10,15,01,47,0.00
2016,10,15,01,48,0.00
2016,10,15,01,49,0.00
2016,10,15,01,50,0.00
2016,10,15,01,51,0.00
2016,10,15,01,52,0.00
2016,10,15,01,53,0.00
2016,10,15,01,54,0.00
2016,10,15,01,55,0.00
2016,10,15,01,56,0.00
2016,10,15,01,57,0.00
2016,10,15,01,58,0.00
2016,10,15,01,59,0.00
2016,10,15,02,00,0.00
2016,10,15,02,01,0.00
2016,10,15,02,02,0.00
2016,10,15,02,03,0.00
2016,10,15,02,04,0.00
2016,10,15,02,05,0.00
2016,10,15,02,06,0.00
2016,10,15,02,07,0.00
2016,10,15,02,08,0.00
2016,10,15,02,09,0.00
2016,10,15,02,10,0.00
2016,10,15,02,11,0.00
2016,10,15,02,12,0.00
2016,10,15,02,13,0.00
2016,10,15,02,14,0.00
2016,10,15,02,15,0.00
2016,10,15,02,16,0.00
2016,10,15,02,17,0.00
2016,10,15,02,18,0.00
2016,10,15,02,19,0.00
2016,10,15,02,20,0.00
2016,10,15,02,21,0.00
2016,10,15,02,22,0.00
2016,10,15,02,23,0.00
2016,10,15,02,24,0.00
2016,10,15,02,25,0.00
2016,10,15,02,26,0.00
2016,10,15,02,27,0.00
2016,10,15,02,28,0.00
2016,10,15,02,29,0.00
2016,10,15,02,30,0.00
2016,10,15,02,31,0.00
2016,10,15,02,32,0.00
2016,10,15,02,33,0.00
2016,10,15,02,34,0.00
2016,10,15,02,35,0.00
2016,10,15,02,36,0.00
2016,10,15,02,37,0.00
2016,10,15,02,38,0.00
2016,10,15,02,39,0.00
2016,10,15,02,40,0.00
2016,10,15,02,41,0.00
2016,10,15,02,42,0.00
2016,10,15,02,43,0.00
2016,10,15,02,44,0.00
2016,10,15,02,45,0.00
2016,10,15,02,46,0.10
2016,10,15,02,47,0.00
2016,10,15,02,48,0.00
2016,10,15,02,49,0.00
2016,10,15,02,50,0.00
2016,10,15,02,51,0.00
2016,10,15,02,52,0.00
2016,10,15,02,53,0.00
2016,10,15,02,54,0.00
2016,10,15,02,55,0.00
2016,10,15,02,56,0.00
2016,10,15,02,57,0.00
2016,10,15,02,58,0.00
2016,10,15,02,59,0.00
2016,10,15,03,00,0.00
2016,10,15,03,01,0.00
2016,10,15,03,02,0.00
2016,10,15,03,03,0.00
2016,10,15,03,04,0.00
2016,10,15,03,05,0.00
2016,10,15,03,06,0.00
2016,10,15,03,07,0.00
2016,10,15,03,08,0.00
2016,10,15,03,09,0.00
2016,10,15,03,10,0.00
2016,10,15,03,11,0.00
2016,10,15,03,12,0.00
2016,10,15,03,13,0.00
2016,10,15,03,14,0.00
2016,10,15,03,15,0.00
2016,10,15,03,16,0.00
2016,10,15,03,17,0.00
2016,10,15,03,18,0.00
2016,10,15,03,19,0.00
2016,10,15,03,20,0.00
2016,10,15,03,21,0.00
2016,10,15,03,22,0.00
2016,10,15,03,23,0.00
2016,10,15,03,24,0.00
2016,10,15,03,25,0.00
2016,10,15,03,26,0.00
2016,10,15,03,27,0.00
2016,10,15,03,28,0.00
2016,10,15,03,29,0.00
2016,10,15,03,30,0.00
2016,10,15,03,31,0.00
2016,10,15,03,32,0.00
2016,10,15,03,33,0.00
2016,10,15,03,34,0.00
2016,10,15,03,35,0.00
2016,10,15,03,36,0.00
2016,10,15,03,37,0.00
2016,10,15,03,38,0.00
2016,10,15,03,39,0.00
2016,10,15,03,40,0.00
2016,10,15,03,41,0.00
2016,10,15,03,42,0.00
2016,10,15,03,43,0.00
2016,10,15,03,44,0.00
2016,10,15,03,45,0.00
2016,10,15,03,46,0.00
2016,10,15,03,47,0.00
2016,10,15,03,48,0.00
2016,10,15,03,49,0.00
2016,10,15,03,50,0.00
2016,10,15,03,51,0.00
2016,10,15,03,52,0.00
2016,10,15,03,53,0.00
2016,10,15,03,54,0.00
2016,10,15,03,55,0.00
2016,10,15,03,56,0.00
2016,10,15,03,57,0.00
2016,10,15,03,58,0.00
2016,10,15,03,59,0.00
2016,10,15,04,00,0.00
2016,10,15,04,01,0.00
2016,10,15,04,02,0.00
2016,10,15,04,03,0.00
2016,10,15,04,04,0.00
2016,10,15,04,05,0.00
2016,10,15,04,06,0.00
2016,10,15,04,07,0.00
2016,10,15,04,08,0.00
2016,10,15,04,09,0.00
2016,10,15,04,10,0.00
2016,10,15,04,11,0.00
2016,10,15,04,12,0.00
2016,10,15,04,13,0.00
2016,10,15,04,14,0.00
2016,10,15,04,15,0.00
2016,10,15,04,16,0.00
2016,10,15,04,17,0.00
2016,10,15,04,18,0.00
2016,10,15,04,19,0.00
2016,10,15,04,20,0.00
2016,10,15,04,21,0.00
2016,10,15,04,22,0.00
2016,10,15,04,23,0.00
2016,10,15,04,24,0.00
2016,10,15,04,25,0.00
2016,10,15,04,26,0.00
2016,10,15,04,27,0.00
2016,10,15,04,28,0.00
2016,10,15,04,29,0.00
2016,10,15,04,30,0.00
2016,10,15,04,31,0.00
2016,10,15,04,32,0.00
2016,10,15,04,33,0.00
2016,10,15,04,34,0.00
2016,10,15,04,35,0.00
2016,10,15,04,36,0.00
2016,10,15,04,37,0.00
2016,10,15,04,38,0.00
2016,10,15,04,39,0.00
2016,10,15,04,40,0.00
2016,10,15,04,41,0.00
2016,10,15,04,42,0.00
2016,10,15,04,43,0.00
2016,10,15,04,44,0.30
2016,10,15,04,45,1.20
2016,10,15,04,46,0.60
2016,10,15,04,47,0.10
2016,10,15,04,48,0.00
2016,10,15,04,49,0.00
2016,10,15,04,50,0.00
2016,10,15,04,51,0.00
2016,10,15,04,52,0.00
2016,10,15,04,53,0.00
2016,10,15,04,54,0.00
2016,10,15,04,55,0.00
2016,10,15,04,56,0.00
2016,10,15,04,57,0.00
2016,10,15,04,58,0.00
2016,10,15,04,59,0.00
2016,10,15,05,00,0.00
2016,10,15,05,01,0.00
2016,10,15,05,02,0.00
2016,10,15,05,03,0.00
2016,10,15,05,04,0.00
2016,10,15,05,05,0.00
2016,10,15,05,06,0.00
2016,10,15,05,07,0.00
2016,10,15,05,08,0.00
2016,10,15,05,09,0.00
2016,10,15,05,10,0.00
2016,10,15,05,11,0.00
2016,10,15,05,12,0.10
2016,10,15,05,13,0.00
2016,10,15,05,14,0.00
2016,10,15,05,15,0.00
2016,10,15,05,16,0.00
2016,10,15,05,17,0.90
2016,10,15,05,18,1.60
2016,10,15,05,19,0.50
2016,10,15,05,20,2.50
2016,10,15,05,21,1.40
2016,10,15,05,22,0.80
2016,10,15,05,23,5.20
2016,10,15,05,24,4.20
2016,10,15,05,25,1.30
2016,10,15,05,26,0.90
2016,10,15,05,27,0.10
2016,10,15,05,28,0.00
2016,10,15,05,29,0.10
2016,10,15,05,30,0.00
2016,10,15,05,31,0.00
2016,10,15,05,32,0.00
2016,10,15,05,33,0.00
2016,10,15,05,34,0.00
2016,10,15,05,35,0.70
2016,10,15,05,36,2.90
2016,10,15,05,37,1.60
2016,10,15,05,38,0.00
2016,10,15,05,39,0.00
2016,10,15,05,40,1.10
2016,10,15,05,41,0.00
2016,10,15,05,42,0.00
2016,10,15,05,43,0.00
2016,10,15,05,44,0.00
2016,10,15,05,45,0.00
2016,10,15,05,46,0.00
2016,10,15,05,47,0.00
2016,10,15,05,48,0.00
2016,10,15,05,49,0.00
2016,10,15,05,50,0.00
2016,10,15,05,51,0.00
2016,10,15,05,52,0.00
2016,10,15,05,53,0.00
2016,10,15,05,54,0.00
2016,10,15,05,55,0.00
2016,10,15,05,56,0.00
2016,10,15,05,57,0.00
2016,10,15,05,58,0.00
2016,10,15,05,59,0.00
2016,10,15,06,00,0.00
2016,10,15,06,01,0.00
2016,10,15,06,02,0.00
2016,10,15,06,03,0.00
2016,10,15,06,04,0.00
2016,10,15,06,05,0.00
2016,10,15,06,06,0.00
2016,10,15,06,07,0.00
2016,10,15,06,08,0.00
2016,10,15,06,09,0.00
2016,10,15,06,10,0.00
2016,10,15,06,11,0.00
2016,10,15,06,12,0.00
2016,10,15,06,13,0.00
2016,10,15,06,14,0.00
2016,10,15,06,15,0.00
2016,10,15,06,16,0.00
2016,10,15,06,17,0.00
2016,10,15,06,18,0.00
2016,10,15,06,19,0.00
2016,10,15,06,20,0.00
2016,10,15,06,21,0.00
2016,10,15,06,22,0.00
2016,10,15,06,23,0.00
2016,10,15,06,24,0.00
2016,10,15,06,25,0.00
2016,10,15,06,26,0.00
2016,10,15,06,27,0.00
2016,10,15,06,28,0.10
2016,10,15,06,29,0.00
2016,10,15,06,30,0.00
2016,10,15,06,31,0.00
2016,10,15,06,32,0.00
2016,10,15,06,33,0.00
2016,10,15,06,34,0.00
2016,10,15,06,35,0.40
2016,10,15,06,36,0.10
2016,10,15,06,37,1.90
2016,10,15,06,38,3.70
2016,10,15,06,39,2.20
2016,10,15,06,40,5.70
2016,10,15,06,41,5.30
2016,10,15,06,42,1.50
2016,10,15,06,43,1.90
2016,10,15,06,44,3.40
2016,10,15,06,45,0.20
2016,10,15,06,46,0.20
2016,10,15,06,47,2.90
2016,10,15,06,48,2.00
2016,10,15,06,49,0.50
2016,10,15,06,50,2.90
2016,10,15,06,51,0.70
2016,10,15,06,52,1.90
2016,10,15,06,53,1.10
2016,10,15,06,54,6.00
2016,10,15,06,55,0.20
2016,10,15,06,56,6.00
2016,10,15,06,57,6.40
2016,10,15,06,58,8.50
2016,10,15,06,59,8.20
2016,10,15,07,00,6.90
2016,10,15,07,01,7.70
2016,10,15,07,02,4.90
2016,10,15,07,03,0.00
2016,10,15,07,04,2.50
2016,10,15,07,05,6.80
2016,10,15,07,06,10.70
2016,10,15,07,07,7.30
2016,10,15,07,08,4.20
2016,10,15,07,09,5.10
2016,10,15,07,10,7.20
2016,10,15,07,11,9.50
2016,10,15,07,12,4.80
2016,10,15,07,13,0.80
2016,10,15,07,14,7.50
2016,10,15,07,15,10.00
2016,10,15,07,16,5.10
2016,10,15,07,17,2.70
2016,10,15,07,18,7.50
2016,10,15,07,19,7.30
2016,10,15,07,20,6.60
2016,10,15,07,21,3.40
2016,10,15,07,22,1.30
2016,10,15,07,23,3.50
2016,10,15,07,24,3.00
2016,10,15,07,25,5.40
2016,10,15,07,26,5.30
2016,10,15,07,27,7.10
2016,10,15,07,28,6.80
2016,10,15,07,29,3.20
2016,10,15,07,30,4.10
2016,10,15,07,31,5.60
2016,10,15,07,32,0.80
2016,10,15,07,33,3.10
2016,10,15,07,34,1.50
2016,10,15,07,35,2.30
2016,10,15,07,36,5.90
2016,10,15,07,37,5.50
2016,10,15,07,38,3.70
2016,10,15,07,39,5.20
2016,10,15,07,40,9.30
2016,10,15,07,41,5.40
2016,10,15,07,42,3.40
2016,10,15,07,43,1.60
2016,10,15,07,44,2.60
2016,10,15,07,45,6.10
2016,10,15,07,46,3.50
2016,10,15,07,47,2.10
2016,10,15,07,48,5.00
2016,10,15,07,49,9.80
2016,10,15,07,50,13.40
2016,10,15,07,51,16.90
2016,10,15,07,52,10.90
2016,10,15,07,53,8.60
2016,10,15,07,54,5.70
2016,10,15,07,55,10.40
2016,10,15,07,56,7.20
2016,10,15,07,57,4.40
2016,10,15,07,58,12.10
2016,10,15,07,59,13.00
2016,10,15,08,00,8.60
2016,10,15,08,01,7.40
2016,10,15,08,02,17.90
2016,10,15,08,03,12.80
2016,10,15,08,04,12.40
2016,10,15,08,05,12.50
2016,10,15,08,06,13.70
2016,10,15,08,07,13.90
2016,10,15,08,08,15.80
2016,10,15,08,09,16.30
2016,10,15,08,10,8.70
2016,10,15,08,11,7.80
2016,10,15,08,12,10.50
2016,10,15,08,13,9.70
2016,10,15,08,14,8.80
2016,10,15,08,15,10.60
2016,10,15,08,16,12.20
2016,10,15,08,17,11.40
2016,10,15,08,18,8.70
2016,10,15,08,19,9.70
2016,10,15,08,20,6.40
2016,10,15,08,21,9.80
2016,10,15,08,22,8.90
2016,10,15,08,23,8.10
2016,10,15,08,24,8.10
2016,10,15,08,25,8.00
2016,10,15,08,26,7.30
2016,10,15,08,27,8.90
2016,10,15,08,28,16.30
2016,10,15,08,29,15.60
2016,10,15,08,30,15.50
2016,10,15,08,31,10.60
2016,10,15,08,32,11.70
2016,10,15,08,33,14.30
2016,10,15,08,34,15.20
2016,10,15,08,35,10.10
2016,10,15,08,36,14.50
2016,10,15,08,37,14.20
2016,10,15,08,38,13.30
2016,10,15,08,39,8.90
2016,10,15,08,40,11.30
2016,10,15,08,41,10.40
2016,10,15,08,42,15.50
2016,10,15,08,43,13.90
2016,10,15,08,44,15.90
2016,10,15,08,45,19.20
2016,10,15,08,46,16.00
2016,10,15,08,47,14.80
2016,10,15,08,48,11.30
2016,10,15,08,49,13.60
2016,10,15,08,50,17.10
2016,10,15,08,51,12.30
2016,10,15,08,52,8.20
2016,10,15,08,53,7.10
2016,10,15,08,54,9.20
2016,10,15,08,55,8.10
2016,10,15,08,56,6.50
2016,10,15,08,57,3.70
2016,10,15,08,58,9.00
2016,10,15,08,59,6.70
2016,10,15,09,00,8.80
2016,10,15,09,01,6.40
2016,10,15,09,02,3.00
2016,10,15,09,03,13.50
2016,10,15,09,04,8.20
2016,10,15,09,05,11.30
2016,10,15,09,06,13.40
2016,10,15,09,07,10.10
2016,10,15,09,08,11.30
2016,10,15,09,09,11.30
2016,10,15,09,10,11.30
2016,10,15,09,11,11.70
2016,10,15,09,12,20.40
2016,10,15,09,13,10.30
2016,10,15,09,14,9.30
2016,10,15,09,15,12.10
2016,10,15,09,16,10.10
2016,10,15,09,17,15.20
2016,10,15,09,18,18.60
2016,10,15,09,19,12.10
2016,10,15,09,20,15.80
2016,10,15,09,21,10.10
2016,10,15,09,22,10.90
2016,10,15,09,23,10.90
2016,10,15,09,24,9.30
2016,10,15,09,25,14.30
2016,10,15,09,26,10.50
2016,10,15,09,27,11.40
2016,10,15,09,28,12.10
2016,10,15,09,29,7.00
2016,10,15,09,30,13.50
2016,10,15,09,31,10.50
2016,10,15,09,32,8.10
2016,10,15,09,33,14.70
2016,10,15,09,34,9.40
2016,10,15,09,35,5.40
2016,10,15,09,36,8.90
2016,10,15,09,37,14.40
2016,10,15,09,38,9.90
2016,10,15,09,39,7.70
2016,10,15,09,40,8.20
2016,10,15,09,41,6.30
2016,10,15,09,42,7.70
2016,10,15,09,43,10.90
2016,10,15,09,44,9.70
2016,10,15,09,45,4.20
2016,10,15,09,46,4.50
2016,10,15,09,47,12.60
2016,10,15,09,48,10.10
2016,10,15,09,49,11.60
2016,10,15,09,50,10.40
2016,10,15,09,51,6.40
2016,10,15,09,52,10.00
2016,10,15,09,53,9.70
2016,10,15,09,54,10.00
2016,10,15,09,55,8.00
2016,10,15,09,56,8.50
2016,10,15,09,57,13.60
2016,10,15,09,58,13.10
2016,10,15,09,59,14.70
2016,10,15,10,00,12.90
2016,10,15,10,01,11.30
2016,10,15,10,02,11.40
2016,10,15,10,03,14.40
2016,10,15,10,04,15.90
2016,10,15,10,05,12.90
2016,10,15,10,06,12.10
2016,10,15,10,07,17.10
2016,10,15,10,08,16.90
2016,10,15,10,09,13.10
2016,10,15,10,10,18.50
2016,10,15,10,11,14.70
2016,10,15,10,12,16.90
2016,10,15,10,13,12.80
2016,10,15,10,14,9.70
2016,10,15,10,15,22.40
2016,10,15,10,16,20.50
2016,10,15,10,17,16.40
2016,10,15,10,18,14.20
2016,10,15,10,19,13.40
2016,10,15,10,20,9.50
2016,10,15,10,21,19.60
2016,10,15,10,22,12.80
2016,10,15,10,23,11.00
2016,10,15,10,24,10.00
2016,10,15,10,25,17.80
2016,10,15,10,26,11.90
2016,10,15,10,27,10.60
2016,10,15,10,28,14.40
2016,10,15,10,29,13.00
2016,10,15,10,30,11.10
2016,10,15,10,31,12.90
2016,10,15,10,32,15.50
2016,10,15,10,33,13.00
2016,10,15,10,34,9.30
2016,10,15,10,35,14.80
2016,10,15,10,36,19.00
2016,10,15,10,37,18.10
2016,10,15,10,38,15.70
2016,10,15,10,39,19.50
2016,10,15,10,40,17.50
2016,10,15,10,41,17.30
2016,10,15,10,42,15.80
2016,10,15,10,43,10.90
2016,10,15,10,44,6.20
2016,10,15,10,45,8.20
2016,10,15,10,46,10.40
2016,10,15,10,47,17.70
2016,10,15,10,48,17.40
2016,10,15,10,49,12.20
2016,10,15,10,50,14.20
2016,10,15,10,51,20.10
2016,10,15,10,52,15.80
2016,10,15,10,53,17.70
2016,10,15,10,54,17.90
2016,10,15,10,55,14.90
2016,10,15,10,56,9.90
2016,10,15,10,57,11.20
2016,10,15,10,58,9.20
2016,10,15,10,59,8.90
2016,10,15,11,00,15.70
2016,10,15,11,01,19.90
2016,10,15,11,02,19.90
2016,10,15,11,03,13.60
2016,10,15,11,04,11.40
2016,10,15,11,05,15.80
2016,10,15,11,06,17.70
2016,10,15,11,07,12.60
2016,10,15,11,08,7.00
2016,10,15,11,09,15.40
2016,10,15,11,10,14.00
2016,10,15,11,11,19.20
2016,10,15,11,12,11.30
2016,10,15,11,13,7.10
2016,10,15,11,14,14.60
2016,10,15,11,15,18.00
2016,10,15,11,16,20.00
2016,10,15,11,17,9.70
2016,10,15,11,18,14.00
2016,10,15,11,19,12.60
2016,10,15,11,20,11.50
2016,10,15,11,21,9.50
2016,10,15,11,22,14.90
2016,10,15,11,23,10.30
2016,10,15,11,24,8.00
2016,10,15,11,25,13.10
2016,10,15,11,26,20.30
2016,10,15,11,27,14.90
2016,10,15,11,28,16.30
2016,10,15,11,29,13.50
2016,10,15,11,30,14.80
2016,10,15,11,31,12.70
2016,10,15,11,32,11.20
2016,10,15,11,33,11.30
2016,10,15,11,34,11.30
2016,10,15,11,35,14.60
2016,10,15,11,36,14.10
2016,10,15,11,37,17.50
2016,10,15,11,38,10.20
2016,10,15,11,39,16.90
2016,10,15,11,40,16.80
2016,10,15,11,41,13.90
2016,10,15,11,42,17.90
2016,10,15,11,43,15.60
2016,10,15,11,44,14.30
2016,10,15,11,45,16.30
2016,10,15,11,46,17.50
2016,10,15,11,47,17.20
2016,10,15,11,48,13.70
2016,10,15,11,49,17.50
2016,10,15,11,50,15.80
2016,10,15,11,51,20.30
2016,10,15,11,52,19.50
2016,10,15,11,53,16.00
2016,10,15,11,54,19.00
2016,10,15,11,55,10.50
2016,10,15,11,56,9.50
2016,10,15,11,57,12.90
2016,10,15,11,58,16.30
2016,10,15,11,59,14.30
2016,10,15,12,00,12.00
2016,10,15,12,01,16.90
2016,10,15,12,02,9.70
2016,10,15,12,03,5.60
2016,10,15,12,04,9.50
2016,10,15,12,05,10.30
2016,10,15,12,06,18.10
2016,10,15,12,07,11.80
2016,10,15,12,08,14.70
2016,10,15,12,09,13.30
2016,10,15,12,10,11.90
2016,10,15,12,11,13.80
2016,10,15,12,12,11.90
2016,10,15,12,13,7.90
2016,10,15,12,14,16.00
2016,10,15,12,15,12.50
2016,10,15,12,16,12.70
2016,10,15,12,17,17.90
2016,10,15,12,18,13.60
2016,10,15,12,19,15.00
2016,10,15,12,20,10.50
2016,10,15,12,21,14.20
2016,10,15,12,22,8.80
2016,10,15,12,23,13.40
2016,10,15,12,24,14.60
2016,10,15,12,25,18.70
2016,10,15,12,26,13.60
2016,10,15,12,27,10.50
2016,10,15,12,28,12.70
2016,10,15,12,29,14.40
2016,10,15,12,30,8.40
2016,10,15,12,31,16.90
2016,10,15,12,32,13.60
2016,10,15,12,33,9.40
2016,10,15,12,34,15.40
2016,10,15,12,35,6.70
2016,10,15,12,36,6.40
2016,10,15,12,37,6.40
2016,10,15,12,38,6.40
2016,10,15,12,39,6.40
2016,10,15,12,40,9.90
2016,10,15,12,41,17.90
2016,10,15,12,42,8.70
2016,10,15,12,43,8.60
2016,10,15,12,44,16.20
2016,10,15,12,45,16.30
2016,10,15,12,46,18.30
2016,10,15,12,47,21.10
2016,10,15,12,48,17.40
2016,10,15,12,49,21.60
2016,10,15,12,50,16.40
2016,10,15,12,51,12.60
2016,10,15,12,52,14.00
2016,10,15,12,53,22.40
2016,10,15,12,54,21.10
2016,10,15,12,55,14.00
2016,10,15,12,56,21.10
2016,10,15,12,57,17.70
2016,10,15,12,58,13.60
2016,10,15,12,59,11.10
2016,10,15,13,00,19.00
2016,10,15,13,01,18.10
2016,10,15,13,02,14.70
2016,10,15,13,03,14.40
2016,10,15,13,04,7.00
2016,10,15,13,05,8.40
2016,10,15,13,06,16.20
2016,10,15,13,07,14.50
2016,10,15,13,08,14.70
2016,10,15,13,09,14.90
2016,10,15,13,10,14.90
2016,10,15,13,11,14.90
2016,10,15,13,12,9.90
2016,10,15,13,13,14.60
2016,10,15,13,14,18.10
2016,10,15,13,15,15.30
2016,10,15,13,16,20.90
2016,10,15,13,17,15.90
2016,10,15,13,18,12.10
2016,10,15,13,19,21.80
2016,10,15,13,20,15.00
2016,10,15,13,21,18.00
2016,10,15,13,22,19.70
2016,10,15,13,23,21.20
2016,10,15,13,24,19.70
2016,10,15,13,25,17.60
2016,10,15,13,26,13.00
2016,10,15,13,27,15.30
2016,10,15,13,28,16.30
2016,10,15,13,29,17.50
2016,10,15,13,30,18.80
2016,10,15,13,31,18.70
2016,10,15,13,32,23.00
2016,10,15,13,33,20.80
2016,10,15,13,34,15.90
2016,10,15,13,35,16.20
2016,10,15,13,36,20.30
2016,10,15,13,37,16.20
2016,10,15,13,38,22.60
2016,10,15,13,39,27.20
2016,10,15,13,40,21.60
2016,10,15,13,41,24.10
2016,10,15,13,42,23.20
2016,10,15,13,43,18.50
2016,10,15,13,44,16.30
2016,10,15,13,45,22.80
2016,10,15,13,46,25.20
2016,10,15,13,47,23.20
2016,10,15,13,48,24.50
2016,10,15,13,49,25.20
2016,10,15,13,50,22.00
2016,10,15,13,51,25.70
2016,10,15,13,52,16.60
2016,10,15,13,53,12.10
2016,10,15,13,54,15.40
2016,10,15,13,55,18.20
2016,10,15,13,56,13.10
2016,10,15,13,57,17.20
2016,10,15,13,58,14.50
2016,10,15,13,59,14.50
2016,10,15,14,00,14.50
2016,10,15,14,01,14.50
2016,10,15,14,02,14.50
2016,10,15,14,03,14.50
2016,10,15,14,04,14.50
2016,10,15,14,05,17.30
2016,10,15,14,06,20.50
2016,10,15,14,07,21.00
2016,10,15,14,08,15.00
2016,10,15,14,09,26.10
2016,10,15,14,10,21.90
2016,10,15,14,11,20.50
2016,10,15,14,12,15.40
2016,10,15,14,13,22.70
2016,10,15,14,14,22.80
2016,10,15,14,15,17.90
2016,10,15,14,16,22.40
2016,10,15,14,17,18.80
2016,10,15,14,18,28.00
2016,10,15,14,19,31.60
2016,10,15,14,20,25.50
2016,10,15,14,21,31.70
2016,10,15,14,22,23.70
2016,10,15,14,23,22.90
2016,10,15,14,24,16.70
2016,10,15,14,25,26.70
2016,10,15,14,26,21.90
2016,10,15,14,27,20.40
2016,10,15,14,28,33.40
2016,10,15,14,29,28.00
2016,10,15,14,30,23.30
2016,10,15,14,31,21.70
2016,10,15,14,32,29.20
2016,10,15,14,33,26.40
2016,10,15,14,34,26.90
2016,10,15,14,35,35.40
2016,10,15,14,36,30.70
2016,10,15,14,37,33.10
2016,10,15,14,38,27.80
2016,10,15,14,39,25.80
2016,10,15,14,40,27.70
2016,10,15,14,41,29.60
2016,10,15,14,42,25.80
2016,10,15,14,43,32.00
2016,10,15,14,44,22.80
2016,10,15,14,45,28.90
2016,10,15,14,46,34.80
2016,10,15,14,47,28.70
2016,10,15,14,48,33.50
2016,10,15,14,49,31.00
2016,10,15,14,50,34.20
2016,10,15,14,51,24.50
2016,10,15,14,52,22.50
2016,10,15,14,53,30.50
2016,10,15,14,54,25.20
2016,10,15,14,55,32.80
2016,10,15,14,56,28.80
2016,10,15,14,57,29.20
2016,10,15,14,58,21.70
2016,10,15,14,59,26.20
2016,10,15,15,00,29.70
2016,10,15,15,01,30.70
2016,10,15,15,02,26.60
2016,10,15,15,03,24.50
2016,10,15,15,04,22.60
2016,10,15,15,05,30.00
2016,10,15,15,06,27.30
2016,10,15,15,07,29.80
2016,10,15,15,08,29.40
2016,10,15,15,09,22.70
2016,10,15,15,10,23.70
2016,10,15,15,11,23.20
2016,10,15,15,12,29.10
2016,10,15,15,13,36.30
2016,10,15,15,14,32.00
2016,10,15,15,15,25.00
2016,10,15,15,16,27.60
2016,10,15,15,17,22.90
2016,10,15,15,18,28.80
2016,10,15,15,19,27.80
2016,10,15,15,20,31.00
2016,10,15,15,21,24.90
2016,10,15,15,22,26.70
2016,10,15,15,23,25.20
2016,10,15,15,24,28.30
2016,10,15,15,25,23.90
2016,10,15,15,26,28.70
2016,10,15,15,27,35.70
2016,10,15,15,28,23.00
2016,10,15,15,29,33.30
2016,10,15,15,30,32.60
2016,10,15,15,31,26.30
2016,10,15,15,32,26.10
2016,10,15,15,33,31.80
2016,10,15,15,34,28.00
2016,10,15,15,35,24.10
2016,10,15,15,36,30.10
2016,10,15,15,37,20.70
2016,10,15,15,38,32.20
2016,10,15,15,39,22.30
2016,10,15,15,40,35.90
2016,10,15,15,41,28.80
2016,10,15,15,42,28.30
2016,10,15,15,43,31.10
2016,10,15,15,44,26.70
2016,10,15,15,45,27.20
2016,10,15,15,46,32.70
2016,10,15,15,47,26.80
2016,10,15,15,48,28.00
2016,10,15,15,49,29.00
2016,10,15,15,50,25.30
2016,10,15,15,51,29.30
2016,10,15,15,52,31.30
2016,10,15,15,53,29.10
2016,10,15,15,54,23.90
2016,10,15,15,55,23.20
2016,10,15,15,56,21.80
2016,10,15,15,57,22.00
2016,10,15,15,58,20.40
2016,10,15,15,59,23.90
2016,10,15,16,00,21.80
2016,10,15,16,01,21.10
2016,10,15,16,02,23.10
2016,10,15,16,03,25.10
2016,10,15,16,04,28.00
2016,10,15,16,05,25.10
2016,10,15,16,06,25.30
2016,10,15,16,07,29.70
2016,10,15,16,08,23.80
2016,10,15,16,09,24.80
2016,10,15,16,10,23.50
2016,10,15,16,11,18.90
2016,10,15,16,12,23.70
2016,10,15,16,13,24.60
2016,10,15,16,14,23.80
2016,10,15,16,15,18.70
2016,10,15,16,16,29.50
2016,10,15,16,17,22.90
2016,10,15,16,18,25.30
2016,10,15,16,19,25.80
2016,10,15,16,20,30.70
2016,10,15,16,21,25.50
2016,10,15,16,22,30.30
2016,10,15,16,23,26.80
2016,10,15,16,24,27.80
2016,10,15,16,25,22.30
2016,10,15,16,26,26.40
2016,10,15,16,27,30.50
2016,10,15,16,28,32.60
2016,10,15,16,29,27.20
2016,10,15,16,30,21.20
2016,10,15,16,31,22.20
2016,10,15,16,32,25.60
2016,10,15,16,33,30.40
2016,10,15,16,34,28.50
2016,10,15,16,35,24.30
2016,10,15,16,36,26.90
2016,10,15,16,37,27.90
2016,10,15,16,38,24.60
2016,10,15,16,39,30.00
2016,10,15,16,40,28.80
2016,10,15,16,41,28.20
2016,10,15,16,42,23.10
2016,10,15,16,43,28.40
2016,10,15,16,44,21.20
2016,10,15,16,45,27.00
2016,10,15,16,46,34.80
2016,10,15,16,47,36.30
2016,10,15,16,48,30.30
2016,10,15,16,49,29.00
2016,10,15,16,50,26.30
2016,10,15,16,51,20.80
2016,10,15,16,52,30.30
2016,10,15,16,53,28.70
2016,10,15,16,54,27.40
2016,10,15,16,55,26.10
2016,10,15,16,56,26.70
2016,10,15,16,57,30.80
2016,10,15,16,58,30.80
2016,10,15,16,59,23.00
2016,10,15,17,00,32.00
2016,10,15,17,01,23.80
2016,10,15,17,02,20.90
2016,10,15,17,03,30.30
2016,10,15,17,04,32.50
2016,10,15,17,05,29.50
2016,10,15,17,06,25.20
2016,10,15,17,07,32.50
2016,10,15,17,08,38.10
2016,10,15,17,09,43.10
2016,10,15,17,10,28.10
2016,10,15,17,11,27.30
2016,10,15,17,12,30.80
2016,10,15,17,13,23.20
2016,10,15,17,14,30.40
2016,10,15,17,15,34.40
2016,10,15,17,16,23.80
2016,10,15,17,17,32.20
2016,10,15,17,18,31.50
2016,10,15,17,19,30.90
2016,10,15,17,20,29.00
2016,10,15,17,21,36.70
2016,10,15,17,22,24.80
2016,10,15,17,23,20.90
2016,10,15,17,24,20.20
2016,10,15,17,25,20.70
2016,10,15,17,26,17.80
2016,10,15,17,27,20.00
2016,10,15,17,28,31.10
2016,10,15,17,29,30.10
2016,10,15,17,30,21.80
2016,10,15,17,31,25.40
2016,10,15,17,32,24.50
2016,10,15,17,33,20.10
2016,10,15,17,34,32.70
2016,10,15,17,35,23.70
2016,10,15,17,36,22.00
2016,10,15,17,37,20.80
2016,10,15,17,38,24.40
2016,10,15,17,39,28.40
2016,10,15,17,40,25.00
2016,10,15,17,41,21.90
2016,10,15,17,42,22.20
2016,10,15,17,43,20.50